OPS 4682 DEB, 19242

Orbit data source: Space-Track

OPS 4682 DEB, 19242 is space debris in LEO originally from a launch on Sat, 03 Apr 1965 UTC launched from the Air Force Western Test Range (AFWTR). Debris objects in space refer to the collection of defunct objects orbiting the Earth. Examples of debris include non-operational satellites, rocket bodies, and fragments generated from explosions, collisions, or faulty payload assembly.

Loading next visibility...
Identifier
19242, 1965-027AS
Orbit
LEO
Country
Flag of USUS
Related business
Manufacturer
Unknown
Mission
Spacecraft
Bus & Motor
Unknown
Mass
Unknown
Launch date (UTC)
1965-04-03 (61 years ago)
Launch vehicle
Unknown
Launch site
Air Force Western Test Range (AFWTR)
Object type
Payload
Rocket body
Debris
Shape & HBR
Unknown shape, 0.1 m
Radar Cross Section
Medium (>0.1 m² and <1 m²)

Expand to show TLE details & history
Last TLE update: 8 hours ago

TLE from 8 hours ago
0 OPS 4682 DEB
1 19242U 65027AS  26235.90945713  .00001077  00000-0  34619-2 0  9994
2 19242  90.2687  27.7491 0027032 290.8973 224.1715 13.01772192646139
Epoch: 2026-08-23T21:49Z
TLE epoch observation values (Epoch: 2026-08-23T21:49:37.096Z)
Latitude
25.17199°
Longitude
-91.72857°
Altitude
1,273.029 km
Speed
7.214 km/s
True Right ascension
13h 51m 29s
True Declination
25° 02' 56"
Sunlit
Object was in daylight at epoch
Visualization orbit readout
Latitude
Unknown
Longitude
Unknown
Altitude
Unknown
Speed
Unknown
Apparent Right ascension
Unknown
Apparent Declination
Unknown
Sunlit
N/A
Visualization observer readout
Local Sidereal Time
21:13:33
Azimuth
Unknown
Elevation
Unknown
Doppler factor
Unknown
Orbital elements
Apogee altitude
1,272.902 km
Perigee altitude
1,231.649 km
Semi-major axis
7,630.412 km
Eccentricity
0.0027
Inclination
90.2687°
RAAN
27.7491°
Arg. of periapsis
290.8973°
True anomaly
223.95618°
Mean anomaly
224.1715°
Eccentric anomaly
224.06379°
Mean motion
3.25628 °/min
Orbital period
110.56 mins
BSTAR
0.0034619
Loading maneuver chart data...
Computing Atmospheric mass density...
Loading historical data...
Loading historical data...
Loading historical data...
Loading historical data...
Loading historical data...
Loading historical data...
Loading historical data...

Documentation

Showing up to 5 results
|